Diboll, TX

9:14 AM CST on February 26, 2017 (GMT -0600)
Angelina County

Weather History for KLFK - September, 2014

Change the Weather History Date:

Sunday, September 14, 2014

  Actual Average Record
Temperature  
Mean Temperature 77 °F 78 °F  
Max Temperature 87 °F 89 °F 102 °F (2011)
Min Temperature 66 °F 67 °F 50 °F (1940)
Degree Days  
Heating Degree Days 0 0  
Month to date heating degree days 0 0  
Since 1 July heating degree days 0 0  
Cooling Degree Days 12 13  
Month to date cooling degree days 262 206  
Year to date cooling degree days 2496 2229  
Growing Degree Days 26 (Base 50)    
Moisture  
Dew Point 63 °F    
Average Humidity 67    
Maximum Humidity 84    
Minimum Humidity 50    
Precipitation  
Precipitation 0.00 in 0.15 in 1.38 in (1982)
Month to date precipitation 1.76 2.01  
Year to date precipitation 33.68 32.60  
Snow  
Snow 0.00 in - - ()
Month to date snowfall 0.0  
Since 1 July snowfall 0.0  
Since 1 September snowfall 0.0  
Snow Depth 0.00 in    
Sea Level Pressure  
Sea Level Pressure 30.16 in    
Wind  
Wind Speed 5 mph (NE)    
Max Wind Speed 10 mph    
Max Gust Speed 15 mph    
Visibility 9 miles    
Events      
T = Trace of Precipitation, MM = Missing Value Source: NWS Daily Summary

Daily Weather History Graph

Daily Weather History Graph

Search for Another Location

Airport or City:

Trip Planner

Search our weather history database for the weather conditions in past years. The results will help you decide how hot, cold, wet, or windy it might be!

Date:

Astronomy

Sep. 14, 2014 Rise Set
Actual Time 7:02 AM CDT 7:25 PM CDT
Civil Twilight 6:38 AM CDT 7:50 PM CDT
Nautical Twilight 6:09 AM CDT 8:18 PM CDT
Astronomical Twilight 5:40 AM CDT 8:47 PM CDT
Moon 11:41 PM CDT (9/14) 12:47 PM CDT (9/14)
Length of Visible Light 13h 11m
Length of Day
12h 23m
Waning Gibbous, 64% of the Moon is Illuminated
Sep 14
Waning Gibbous
Sep 15
Last Quarter
Sep 24
New
Oct 1
First Quarter
Oct 8
Full

Hourly Weather History & Observations

Time (CDT) Temp. Heat Index Dew Point Humidity Pressure Visibility Wind Dir Wind Speed Gust Speed Precip Events Conditions
12:12 AM 66.9 °F - 60.1 °F 79% 30.18 in 10.0 mi NNE 5.8 mph - N/A   Overcast
12:45 AM 66.9 °F - 60.1 °F 79% 30.18 in 10.0 mi Variable 4.6 mph - N/A   Overcast
12:53 AM 66.9 °F - 60.1 °F 79% 30.17 in 10.0 mi NNE 4.6 mph - N/A   Overcast
1:13 AM 66.9 °F - 60.1 °F 79% 30.18 in 10.0 mi Calm Calm - N/A   Overcast
1:53 AM 66.9 °F - 60.1 °F 79% 30.17 in 10.0 mi NE 4.6 mph - N/A   Overcast
2:53 AM 66.0 °F - 61.0 °F 84% 30.16 in 6.0 mi NE 5.8 mph - N/A   Haze
3:12 AM 66.0 °F - 61.0 °F 84% 30.17 in 6.0 mi NNE 5.8 mph - N/A   Haze
3:53 AM 66.0 °F - 61.0 °F 84% 30.15 in 8.0 mi NE 4.6 mph - N/A   Overcast
4:15 AM 66.0 °F - 60.1 °F 81% 30.16 in 8.0 mi Variable 4.6 mph - N/A   Overcast
4:34 AM 66.0 °F - 60.1 °F 81% 30.16 in 8.0 mi NNE 4.6 mph - N/A   Overcast
4:53 AM 66.0 °F - 60.1 °F 81% 30.16 in 8.0 mi NNE 4.6 mph - N/A   Overcast
5:53 AM 66.0 °F - 60.1 °F 81% 30.17 in 8.0 mi NNE 5.8 mph - N/A   Overcast
6:08 AM 66.0 °F - 60.1 °F 81% 30.18 in 7.0 mi NE 5.8 mph - N/A   Overcast
6:38 AM 66.0 °F - 60.1 °F 81% 30.18 in 9.0 mi NNE 3.5 mph - N/A   Overcast
6:53 AM 66.0 °F - 60.1 °F 81% 30.18 in 9.0 mi NNE 5.8 mph - N/A   Overcast
7:00 AM 66.0 °F - 60.1 °F 81% 30.19 in 9.0 mi NNE 4.6 mph - N/A   Overcast
7:53 AM 66.9 °F - 59.0 °F 76% 30.19 in 10.0 mi NNE 4.6 mph - N/A   Overcast
8:53 AM 68.0 °F - 60.1 °F 76% 30.20 in 10.0 mi NNE 8.1 mph - N/A   Overcast
9:53 AM 70.0 °F - 60.1 °F 71% 30.21 in 10.0 mi NE 6.9 mph - N/A   Overcast
10:49 AM 73.4 °F - 62.6 °F 69% 30.22 in 10.0 mi NE 4.6 mph - N/A   Overcast
10:53 AM 73.9 °F - 62.1 °F 66% 30.21 in 10.0 mi NNE 5.8 mph - N/A   Overcast
11:53 AM 78.1 °F - 64.0 °F 62% 30.19 in 10.0 mi North 8.1 mph - N/A   Mostly Cloudy
12:21 PM 79.0 °F - 64.0 °F 60% 30.18 in 10.0 mi NE 4.6 mph - N/A   Scattered Clouds
12:28 PM 79.0 °F - 64.0 °F 60% 30.18 in 10.0 mi Variable 5.8 mph - N/A   Mostly Cloudy
12:46 PM 80.1 °F 81.7 °F 64.0 °F 58% 30.17 in 10.0 mi East 5.8 mph - N/A   Scattered Clouds
12:53 PM 80.1 °F 81.7 °F 64.0 °F 58% 30.16 in 10.0 mi North 5.8 mph - N/A   Scattered Clouds
1:53 PM 82.9 °F 84.6 °F 64.9 °F 54% 30.14 in 10.0 mi Calm Calm - N/A   Scattered Clouds
2:53 PM 84.9 °F 87.1 °F 66.0 °F 53% 30.12 in 10.0 mi East 4.6 mph - N/A   Partly Cloudy
3:53 PM 86.0 °F 88.8 °F 66.9 °F 53% 30.09 in 10.0 mi Variable 5.8 mph - N/A   Scattered Clouds
4:53 PM 87.1 °F 89.9 °F 66.9 °F 51% 30.08 in 10.0 mi North 5.8 mph - N/A   Scattered Clouds
5:53 PM 84.9 °F 87.6 °F 66.9 °F 55% 30.08 in 10.0 mi NE 4.6 mph - N/A   Scattered Clouds
6:53 PM 82.9 °F 85.8 °F 68.0 °F 60% 30.08 in 10.0 mi NNE 3.5 mph - N/A   Mostly Cloudy
7:53 PM 81.0 °F 84.1 °F 69.1 °F 67% 30.09 in 10.0 mi Calm Calm - N/A   Overcast
8:53 PM 79.0 °F - 69.1 °F 72% 30.10 in 10.0 mi NNE 4.6 mph - N/A   Mostly Cloudy
9:53 PM 75.0 °F - 69.1 °F 82% 30.12 in 10.0 mi ESE 3.5 mph - N/A   Clear
10:53 PM 75.0 °F - 69.1 °F 82% 30.12 in 10.0 mi ENE 4.6 mph - N/A   Partly Cloudy
11:53 PM 73.9 °F - 68.0 °F 82% 30.12 in 10.0 mi ENE 3.5 mph - N/A   Clear